QPF
0.00 0.00 0.00 0.00 0.00 0.00 0.00 0.00 0.00 0.00 0.00 0.00 0.00 0.00 0.00 0.00 0.00 0.00 0.00 0.00 0.00 0.00 0.00 0.00 0.00 0.00 0.00 0.00 0.00 0.00 0.00 0.00 0.00 0.00 0.00 0.00 0.01 0.01
0.00 0.00 0.00 0.00 0.00 0.00 0.00 0.00 0.00 0.00 0.00 0.00 0.00 0.00 0.00 0.00 0.00 0.00 0.00 0.00 0.00 0.00 0.00 0.00 0.00 0.00 0.00 0.00 0.00 0.00 0.00 0.00 0.00 0.00 0.00 0.00 0.01 0.02
0.00 0.00 0.00 0.00 0.00 0.00 0.00 0.00 0.00 0.00 0.00 0.00 0.00 0.00 0.00 0.00 0.00 0.00 0.00 0.00 0.00 0.00 0.00 0.00 0.00 0.00 0.00 0.00 0.00 0.00 0.00 0.00 0.00 0.00 0.00 0.01 0.01 0.01
0.00 0.00 0.00 0.00 0.00 0.00 0.00 0.00 0.00 0.00 0.00 0.00 0.00 0.00 0.00 0.00 0.00 0.00 0.00 0.00 0.00 0.00 0.00 0.00 0.00 0.00 0.00 0.00 0.00 0.00 0.00 0.00 0.00 0.00 0.00 0.00 0.00 0.00
0.00 0.00 0.00 0.00 0.00 0.00 0.00 0.00 0.00 0.00 0.00 0.00 0.00 0.00 0.00 0.00 0.00 0.00 0.00 0.00 0.00 0.00 0.00 0.00 0.00 0.00 0.00 0.00 0.00 0.00 0.00 0.00 0.00 0.00 0.00 0.00 0.00 0.00
0.00 0.00 0.00 0.00 0.00 0.00 0.00 0.00 0.00 0.00 0.00 0.00 0.00 0.00 0.00 0.00 0.00 0.00 0.00 0.00 0.00 0.00 0.00 0.00 0.00 0.00 0.00 0.00 0.00 0.00 0.00 0.00 0.00 0.00 0.00 0.00 0.00 0.00
0.01 0.00 0.00 0.00 0.00 0.00 0.00 0.00 0.00 0.00 0.00 0.00 0.00 0.00 0.00 0.00 0.00 0.00 0.00 0.00 0.00 0.00 0.00 0.00 0.00 0.00 0.00 0.00 0.00 0.00 0.00 0.00 0.00 0.00 0.00 0.00 0.00 0.00
0.01 0.00 0.00 0.00 0.00 0.00 0.00 0.00 0.00 0.00 0.00 0.00 0.00 0.00 0.00 0.00 0.00 0.00 0.00 0.00 0.00 0.00 0.00 0.00 0.00 0.00 0.00 0.00 0.00 0.00 0.00 0.00 0.00 0.00 0.00 0.00 0.00 0.00
0.01 0.01 0.00 0.00 0.00 0.00 0.00 0.00 0.00 0.00 0.00 0.00 0.00 0.00 0.00 0.00 0.00 0.00 0.00 0.00 0.00 0.00 0.00 0.00 0.00 0.00 0.00 0.00 0.00 0.00 0.00 0.00 0.00 0.00 0.00 0.00 0.00 0.00
0.01 0.01 0.01 0.00 0.00 0.00 0.02 0.02 0.02 0.01 0.00 0.00 0.01 0.00 0.00 0.01 0.01 0.00 0.00 0.00 0.00 0.00 0.00 0.00 0.00 0.00 0.00 0.00 0.00 0.00 0.00 0.00 0.00 0.00 0.00 0.00 0.00 0.00
0.00 0.00 0.01 0.01 0.01 0.05 0.11 0.05 0.03 0.03 0.03 0.04 0.04 0.04 0.04 0.04 0.02 0.00 0.00 0.00 0.00 0.00 0.00 0.00 0.00 0.00 0.00 0.00 0.00 0.00 0.00 0.00 0.00 0.00 0.00 0.00 0.00 0.00
0.00 0.01 0.01 0.02 0.04 0.10 0.15 0.15 0.11 0.09 0.09 0.08 0.08 0.07 0.06 0.04 0.02 0.00 0.00 0.00 0.00 0.00 0.00 0.00 0.00 0.00 0.00 0.00 0.00 0.00 0.00 0.00 0.00 0.00 0.00 0.00 0.00 0.00
0.00 0.00 0.00 0.00 0.00 0.02 0.07 0.10 0.10 0.11 0.11 0.10 0.11 0.09 0.05 0.03 0.02 0.00 0.00 0.00 0.00 0.00 0.00 0.00 0.00 0.00 0.00 0.00 0.00 0.00 0.00 0.00 0.00 0.00 0.00 0.00 0.00 0.00
0.00 0.00 0.00 0.00 0.00 0.02 0.03 0.04 0.08 0.09 0.10 0.10 0.09 0.08 0.05 0.03 0.01 0.00 0.00 0.00 0.00 0.00 0.00 0.00 0.00 0.00 0.00 0.00 0.00 0.00 0.00 0.00 0.00 0.00 0.00 0.00 0.00 0.00
0.00 0.00 0.00 0.00 0.01 0.01 0.00 0.00 0.02 0.04 0.05 0.04 0.04 0.04 0.03 0.02 0.01 0.00 0.00 0.00 0.00 0.00 0.00 0.00 0.00 0.00 0.00 0.00 0.00 0.00 0.00 0.00 0.00 0.00 0.00 0.00 0.00 0.00
0.00 0.00 0.00 0.00 0.00 0.00 0.00 0.00 0.01 0.01 0.02 0.03 0.03 0.02 0.01 0.01 0.00 0.00 0.00 0.00 0.00 0.00 0.00 0.00 0.00 0.00 0.00 0.00 0.00 0.00 0.00 0.00 0.00 0.00 0.00 0.00 0.00 0.00
0.00 0.00 0.00 0.00 0.00 0.00 0.00 0.01 0.02 0.03 0.03 0.03 0.02 0.02 0.01 0.00 0.00 0.00 0.00 0.00 0.00 0.00 0.00 0.00 0.00 0.00 0.00 0.00 0.00 0.00 0.00 0.00 0.00 0.00 0.00 0.00 0.00 0.00
0.00 0.00 0.00 0.00 0.00 0.00 0.01 0.01 0.01 0.02 0.02 0.02 0.02 0.01 0.00 0.00 0.00 0.00 0.00 0.00 0.00 0.00 0.00 0.00 0.00 0.00 0.00 0.00 0.00 0.00 0.00 0.00 0.00 0.00 0.00 0.00 0.00 0.00
0.00 0.00 0.00 0.00 0.00 0.00 0.00 0.01 0.01 0.00 0.01 0.01 0.00 0.00 0.00 0.00 0.00 0.00 0.00 0.00 0.00 0.00 0.00 0.00 0.00 0.00 0.00 0.00 0.00 0.00 0.00 0.00 0.00 0.00 0.00 0.00 0.00 0.00
0.00 0.00 0.00 0.00 0.00 0.00 0.00 0.00 0.00 0.00 0.00 0.00 0.00 0.00 0.00 0.00 0.00 0.00 0.00 0.00 0.00 0.00 0.00 0.00 0.00 0.00 0.00 0.00 0.00 0.00 0.00 0.00 0.00 0.00 0.00 0.00 0.00 0.00
0.00 0.00 0.00 0.00 0.00 0.00 0.00 0.00 0.00 0.00 0.00 0.01 0.00 0.00 0.00 0.00 0.00 0.00 0.00 0.00 0.00 0.00 0.00 0.00 0.00 0.00 0.00 0.00 0.00 0.00 0.00 0.00 0.00 0.00 0.00 0.00 0.00 0.00
0.00 0.00 0.00 0.00 0.00 0.00 0.00 0.00 0.00 0.00 0.00 0.00 0.00 0.00 0.00 0.00 0.00 0.00 0.00 0.00 0.00 0.00 0.00 0.00 0.00 0.00 0.00 0.00 0.00 0.00 0.00 0.00 0.00 0.00 0.00 0.00 0.00 0.00
0.00 0.00 0.00 0.00 0.00 0.00 0.00 0.00 0.00 0.00 0.00 0.00 0.00 0.00 0.00 0.00 0.00 0.00 0.00 0.00 0.00 0.00 0.00 0.00 0.00 0.00 0.00 0.00 0.00 0.00 0.00 0.00 0.00 0.00 0.00 0.00 0.00 0.00
MSLP
1010.88 1011.12 1011.38 1011.40 1011.79 1012.05 1012.44 1012.93 1013.48 1013.67 1012.85 1012.33 1012.70 1012.13 1012.28 1012.39 1012.64 1013.06 1013.50 1014.12 1014.59 1014.99 1015.59 1015.85 1016.03 1016.17 1016.35 1016.56 1016.74 1016.79 1016.66 1016.58 1016.38 1016.41 1016.36 1015.95 1015.67 1015.87
1009.87 1010.22 1010.24 1010.28 1010.72 1011.05 1011.30 1011.64 1012.11 1012.31 1012.27 1011.55 1011.81 1011.89 1012.17 1012.43 1012.76 1013.10 1013.66 1014.10 1014.57 1015.03 1015.42 1015.82 1016.16 1016.08 1016.03 1016.19 1016.26 1016.39 1016.32 1016.34 1016.43 1016.18 1016.00 1015.77 1015.52 1015.57
1008.99 1009.17 1009.20 1009.38 1009.67 1010.06 1010.44 1010.63 1010.87 1011.31 1011.31 1010.58 1011.28 1011.67 1012.09 1012.43 1012.93 1013.17 1013.72 1014.28 1014.78 1015.15 1015.55 1016.00 1016.34 1016.44 1016.58 1016.48 1016.57 1016.66 1016.58 1016.34 1016.27 1016.07 1015.84 1015.53 1015.40 1015.53
1007.58 1007.99 1007.98 1008.39 1008.65 1008.88 1009.28 1009.55 1009.87 1010.11 1010.42 1010.27 1010.86 1011.49 1011.82 1012.10 1012.58 1013.19 1013.79 1014.09 1014.52 1015.27 1015.58 1016.00 1016.47 1016.47 1016.74 1016.53 1016.21 1016.20 1016.23 1016.26 1016.09 1016.07 1015.69 1015.44 1015.62 1015.98
1006.13 1006.56 1006.82 1007.36 1007.59 1007.87 1008.11 1008.38 1008.68 1008.95 1009.21 1009.38 1010.03 1010.84 1011.55 1011.86 1012.63 1013.02 1013.54 1013.84 1014.41 1014.88 1015.47 1015.83 1016.02 1016.01 1016.41 1016.43 1016.43 1016.28 1015.96 1016.00 1016.04 1015.96 1015.90 1015.89 1016.05 1016.12
1005.15 1005.24 1005.57 1005.99 1006.23 1006.57 1006.79 1006.91 1007.28 1007.57 1007.87 1008.43 1008.70 1009.74 1010.39 1011.14 1011.66 1012.43 1013.25 1013.59 1014.32 1014.79 1015.17 1015.38 1015.54 1015.65 1015.88 1016.16 1015.88 1015.93 1015.97 1015.88 1016.14 1016.18 1016.47 1016.56 1016.51 1016.81
1004.18 1004.20 1004.24 1004.39 1004.68 1005.00 1005.38 1005.55 1005.83 1006.10 1006.42 1006.95 1008.08 1008.59 1009.28 1010.07 1010.57 1011.39 1012.31 1012.98 1013.98 1014.41 1014.89 1015.13 1015.51 1015.43 1015.48 1016.04 1016.10 1015.88 1015.85 1016.01 1016.38 1016.30 1016.68 1017.07 1017.15 1017.22
1003.39 1003.26 1003.15 1003.42 1003.73 1003.91 1003.85 1003.75 1004.12 1004.60 1004.83 1005.52 1006.18 1006.98 1007.55 1008.30 1009.30 1010.31 1011.74 1013.26 1013.93 1013.83 1014.33 1014.62 1015.04 1015.28 1015.47 1015.58 1015.58 1015.87 1015.83 1016.30 1016.67 1016.58 1016.53 1016.76 1017.42 1017.67
1002.60 1002.51 1002.45 1002.36 1002.58 1002.79 1003.20 1003.29 1003.11 1003.06 1002.96 1003.55 1004.17 1004.93 1005.80 1006.45 1007.48 1008.80 1009.68 1011.13 1012.08 1012.57 1013.49 1014.49 1014.96 1015.46 1015.58 1016.15 1016.14 1016.28 1015.95 1016.41 1016.91 1016.91 1016.85 1016.80 1017.13 1017.79
1002.36 1002.01 1001.83 1001.57 1001.53 1001.91 1002.23 1002.59 1002.38 1002.01 1001.98 1002.36 1002.36 1003.00 1003.31 1004.41 1005.08 1005.90 1007.46 1009.92 1011.49 1012.16 1012.95 1014.68 1015.19 1015.49 1015.80 1016.44 1015.83 1016.03 1015.77 1016.16 1016.69 1017.11 1017.11 1017.09 1017.30 1017.91
1002.06 1001.74 1001.68 1001.40 1000.84 1001.11 1001.53 1001.52 1001.61 1001.70 1001.48 1001.08 1001.10 1001.46 1002.11 1003.02 1004.09 1005.93 1007.80 1009.28 1010.87 1012.00 1012.61 1014.02 1015.18 1015.48 1015.72 1016.09 1015.90 1016.05 1015.77 1016.08 1016.73 1017.10 1017.44 1017.59 1017.57 1018.02
1002.11 1001.54 1001.26 1001.22 1000.79 1000.60 1000.84 1000.90 1001.32 1001.40 1001.83 1001.63 1001.40 1001.26 1001.31 1002.42 1003.15 1004.03 1005.87 1007.80 1009.59 1011.45 1011.58 1013.11 1014.54 1015.07 1016.69 1016.54 1016.40 1016.61 1016.24 1015.92 1016.74 1016.96 1017.40 1017.62 1017.76 1018.02
1001.95 1001.50 1001.03 1000.72 1000.63 1000.87 1000.70 1000.34 1000.12 1000.40 1001.49 1001.96 1000.97 1001.17 1001.90 1001.00 1002.47 1003.70 1005.38 1005.95 1007.71 1009.20 1010.09 1011.58 1013.36 1014.45 1015.41 1016.10 1016.16 1016.59 1016.59 1016.28 1016.75 1017.14 1017.38 1017.73 1017.89 1018.32
1001.53 1001.08 1000.66 1000.30 1000.15 1000.03 1000.36 1000.46 1000.45 1000.59 1001.25 1001.70 1002.24 1002.90 1001.46 1002.38 1003.48 1004.80 1005.59 1006.51 1006.71 1007.24 1008.77 1009.79 1011.51 1012.91 1013.56 1014.83 1015.60 1016.66 1016.58 1015.98 1016.52 1017.27 1017.54 1017.78 1017.67 1018.05
1000.82 1000.29 1000.16 1000.09 1000.01 999.91 999.60 1000.27 1000.62 1000.56 1000.93 1001.28 1001.45 1001.07 1001.01 1002.29 1003.98 1005.68 1006.52 1007.67 1008.10 1009.05 1010.04 1010.40 1011.09 1012.74 1012.70 1013.48 1014.78 1015.85 1015.81 1015.91 1016.21 1016.68 1017.22 1017.54 1017.58 1017.91
1000.07 1000.28 1000.06 1000.04 1000.08 1000.05 1000.04 1000.08 1000.71 1000.36 999.80 999.93 1000.90 1001.88 1002.14 1002.95 1003.68 1004.49 1006.10 1007.50 1008.32 1010.05 1010.83 1011.35 1012.35 1012.59 1013.04 1014.18 1013.73 1015.21 1014.73 1015.05 1016.13 1016.33 1016.54 1017.16 1017.54 1017.71
1000.16 1000.50 1000.41 1000.41 1000.61 1000.45 1000.20 1000.14 1000.24 1000.91 1001.05 1000.68 1001.01 1001.99 1001.69 1002.21 1004.12 1004.26 1005.96 1007.11 1008.09 1009.68 1011.00 1012.15 1012.78 1013.20 1013.55 1014.68 1015.29 1014.95 1014.74 1015.06 1015.88 1016.31 1016.42 1016.72 1017.10 1017.57
1000.23 1000.57 1000.44 1000.60 1000.46 1000.32 1000.34 1000.48 1000.14 1000.40 1001.28 1001.30 1002.03 1002.67 1004.52 1002.20 1003.04 1005.20 1006.29 1007.09 1008.62 1009.95 1010.84 1012.25 1013.01 1013.43 1013.72 1014.37 1015.04 1015.31 1015.47 1015.62 1015.78 1016.28 1016.21 1016.49 1016.84 1017.16
1000.07 999.86 999.80 1000.07 1000.31 1000.26 1000.14 1000.32 1000.66 1000.66 1001.20 1002.33 1002.27 1002.43 1003.20 1003.51 1007.14 1005.58 1006.95 1007.83 1009.30 1010.46 1011.44 1011.90 1012.81 1013.23 1013.83 1014.35 1014.73 1014.70 1015.18 1015.51 1015.70 1016.00 1016.00 1016.20 1016.59 1016.77
999.39 999.31 999.53 999.91 999.97 1000.10 1000.03 1000.37 1000.82 1001.14 1001.51 1002.07 1003.06 1003.34 1003.09 1004.86 1005.88 1007.55 1008.37 1008.43 1008.92 1009.91 1010.80 1011.92 1012.60 1012.91 1013.03 1013.67 1014.28 1014.43 1014.45 1014.95 1015.59 1015.86 1015.73 1016.07 1016.38 1016.62
998.89 999.01 999.02 999.06 999.63 999.94 1000.05 1000.45 1000.88 1001.26 1001.82 1001.96 1003.15 1004.77 1004.38 1004.84 1006.33 1007.39 1007.75 1008.87 1009.29 1010.21 1011.43 1011.78 1011.52 1012.53 1012.88 1013.19 1013.89 1014.30 1014.47 1014.53 1014.78 1015.32 1015.40 1015.79 1015.78 1016.48
998.79 999.03 999.18 999.37 999.55 999.92 1000.09 1000.54 1000.86 1001.24 1001.94 1002.51 1003.24 1003.40 1005.09 1005.66 1006.36 1007.74 1008.19 1008.92 1009.65 1010.64 1011.41 1011.72 1012.19 1013.14 1013.21 1012.98 1013.61 1013.83 1013.98 1014.54 1014.83 1014.81 1014.85 1014.94 1015.61 1015.77
999.01 999.28 999.40 999.53 999.68 1000.06 1000.24 1000.49 1000.70 1001.19 1001.94 1002.75 1003.41 1004.13 1005.16 1005.71 1007.15 1007.65 1007.71 1009.99 1009.96 1010.04 1011.07 1011.91 1012.84 1013.31 1012.91 1013.08 1013.33 1013.38 1013.49 1014.02 1014.42 1014.53 1014.59 1014.86 1015.24 1015.46
Thickness
5728 5726 5723 5725 5721 5717 5712 5706 5698 5695 5705 5712 5705 5707 5702 5698 5694 5689 5683 5676 5669 5662 5654 5647 5641 5636 5628 5620 5614 5608 5606 5602 5601 5595 5590 5587 5582 5575
5726 5722 5723 5723 5718 5716 5712 5707 5701 5697 5694 5708 5702 5701 5695 5690 5685 5679 5673 5668 5660 5654 5647 5639 5632 5628 5624 5617 5612 5606 5602 5597 5590 5589 5585 5580 5575 5568
5722 5720 5720 5719 5716 5712 5708 5705 5702 5696 5691 5708 5697 5691 5687 5682 5674 5670 5664 5656 5649 5643 5636 5629 5621 5617 5610 5606 5602 5596 5592 5589 5584 5580 5576 5572 5567 5559
5720 5717 5718 5714 5713 5711 5707 5704 5700 5697 5690 5693 5689 5682 5679 5675 5667 5659 5652 5646 5640 5631 5626 5619 5612 5608 5601 5597 5595 5590 5585 5580 5575 5570 5567 5563 5555 5546
5718 5714 5714 5709 5707 5706 5704 5701 5698 5695 5691 5688 5685 5675 5669 5665 5656 5650 5643 5638 5629 5623 5616 5611 5605 5601 5594 5588 5584 5581 5579 5573 5566 5561 5555 5549 5542 5537
5711 5711 5709 5706 5705 5703 5700 5700 5697 5694 5690 5684 5677 5671 5667 5660 5653 5644 5633 5627 5619 5612 5606 5603 5598 5594 5587 5579 5577 5572 5568 5564 5556 5550 5541 5534 5530 5522
5705 5706 5707 5706 5702 5700 5698 5698 5695 5692 5689 5683 5670 5665 5662 5656 5652 5641 5629 5617 5609 5603 5597 5593 5586 5584 5579 5568 5562 5559 5558 5552 5543 5538 5527 5519 5514 5507
5698 5701 5704 5699 5697 5694 5696 5699 5697 5692 5688 5679 5675 5670 5663 5657 5648 5636 5617 5605 5601 5596 5588 5585 5578 5574 5567 5559 5552 5548 5547 5539 5529 5524 5519 5511 5499 5493
5689 5692 5694 5697 5695 5695 5688 5685 5686 5686 5689 5683 5677 5671 5663 5658 5646 5631 5623 5613 5603 5593 5583 5573 5566 5560 5554 5544 5539 5535 5534 5526 5515 5508 5503 5500 5492 5481
5673 5679 5683 5689 5690 5688 5683 5679 5680 5685 5685 5680 5678 5672 5669 5655 5646 5638 5626 5607 5591 5582 5576 5560 5552 5548 5542 5531 5532 5526 5524 5516 5506 5496 5490 5486 5479 5468
5658 5664 5667 5673 5679 5676 5675 5674 5672 5667 5669 5675 5673 5665 5656 5643 5632 5619 5604 5597 5577 5568 5563 5552 5540 5536 5530 5522 5520 5514 5512 5505 5494 5486 5476 5469 5465 5455
5639 5646 5648 5651 5657 5659 5663 5663 5655 5658 5650 5652 5650 5645 5638 5626 5619 5616 5603 5593 5570 5557 5558 5545 5533 5527 5511 5504 5500 5496 5495 5494 5483 5475 5465 5457 5451 5444
5616 5626 5631 5633 5636 5637 5641 5652 5653 5650 5637 5633 5636 5628 5598 5604 5599 5602 5592 5590 5573 5561 5557 5544 5528 5516 5503 5495 5488 5479 5477 5476 5469 5460 5452 5443 5436 5426
5599 5607 5613 5617 5621 5625 5625 5627 5627 5627 5623 5616 5612 5605 5598 5592 5594 5579 5575 5570 5568 5566 5554 5544 5529 5517 5508 5492 5480 5465 5463 5465 5457 5446 5438 5429 5425 5415
5583 5591 5595 5599 5604 5608 5613 5609 5607 5610 5608 5605 5605 5608 5606 5592 5576 5563 5557 5545 5542 5535 5528 5523 5517 5502 5500 5489 5473 5459 5457 5453 5446 5436 5426 5418 5412 5404
5568 5568 5574 5578 5582 5586 5589 5591 5587 5594 5600 5601 5592 5582 5578 5574 5565 5559 5544 5532 5527 5513 5507 5501 5492 5488 5481 5468 5467 5450 5450 5446 5432 5425 5417 5406 5397 5389
5544 5548 5551 5554 5557 5561 5566 5569 5572 5569 5569 5575 5572 5564 5567 5558 5543 5541 5528 5519 5513 5500 5489 5480 5473 5467 5461 5446 5439 5438 5434 5428 5417 5409 5403 5395 5387 5376
5519 5525 5532 5533 5539 5542 5544 5546 5552 5556 5550 5552 5547 5544 5532 5541 5532 5515 5509 5504 5493 5481 5476 5462 5453 5449 5442 5432 5423 5418 5411 5408 5402 5392 5389 5382 5373 5364
5495 5503 5511 5516 5517 5520 5524 5527 5528 5532 5530 5524 5528 5529 5526 5524 5492 5489 5489 5481 5469 5461 5453 5447 5441 5434 5424 5416 5409 5406 5399 5393 5386 5378 5374 5368 5358 5351
5481 5485 5487 5488 5491 5497 5502 5504 5504 5507 5508 5508 5505 5505 5507 5496 5491 5471 5460 5460 5458 5451 5444 5432 5426 5419 5414 5406 5399 5396 5390 5381 5371 5364 5361 5352 5342 5333
5470 5473 5476 5479 5478 5479 5482 5485 5484 5485 5485 5488 5484 5476 5481 5478 5470 5460 5458 5445 5442 5435 5424 5419 5419 5405 5399 5395 5388 5382 5375 5370 5363 5354 5347 5338 5331 5319
5458 5460 5462 5463 5464 5463 5465 5466 5468 5469 5467 5467 5465 5470 5455 5455 5452 5442 5440 5434 5426 5416 5408 5403 5396 5384 5383 5385 5377 5370 5365 5356 5348 5342 5334 5330 5318 5312
5444 5446 5448 5449 5450 5449 5450 5451 5455 5455 5452 5447 5447 5443 5440 5437 5427 5425 5424 5407 5407 5407 5395 5385 5376 5369 5371 5368 5363 5360 5353 5345 5335 5328 5323 5315 5306 5303